User: anonymous   Login
Location: Unspecified
(0.0000°N, 0.0000°E)
Time: 09:22:02
(UTC+00:00)
Language:

ESSAIM-4 - Orbit

View from above orbital plane
View from above orbital plane
View from above satellite
View from above satellite

Ground track
Ground track

The orbit data is extracted from the following two-line orbital elements,

1 28497U 04049F   15200.12166197 0.00000300  00000-0  38805-4 0    02
2 28497  98.2951 263.0755 0003500  45.4013 314.5985 14.80969146    02
Epoch (UTC): 19 July 2015 02:55:11
Eccentricity: 0.0003500
inclination: 98.2951°
perigee height: 624 km
apogee height: 629 km
right ascension of ascending node: 263.0755°
argument of perigee: 45.4013°
revolutions per day: 14.80969146
mean anomaly at epoch: 314.5985°
orbit number at epoch: 0

The dashed part of the orbit path shows where the satellite is in the earth's shadow,  

DLR